Location: Dover
(48.8500°N, 53.9833°W)
Time: 01:19:47
(UTC+00:00)

USA 281 - Pass Details

Date: 14 November 2025
Orbit: 1079 x 1080 km, 106.0° (Epoch: 11 December)

Event Time Altitude Azimuth Distance (km) Brightness Sun altitude
Exits shadow 21:33:32 22° 90° (E) 2,159 4.2 -15.9°
Maximum altitude 21:36:36 33° 47° (NE) 1,747 3.9 -16.4°
Drops below altitude 10° 21:42:17 10° 347° (NNW) 2,931 5.6 -17.3°
Sets 21:45:03 0° 338° (NNW) 3,890 6.3 -17.8°
